Weather History for Caribou, ME

Change the Weather History Date:

Tuesday, January 1, 2013

  Actual Average Record
Temperature  
Mean Temperature 11 °F 12 °F  
Max Temperature 20 °F 21 °F 48 °F (1945)
Min Temperature 1 °F 3 °F -32 °F (1972)
Degree Days  
Heating Degree Days 54 53  
Month to date heating degree days 54 53  
Since 1 July heating degree days 3233 3647  
Cooling Degree Days 0 0  
Month to date cooling degree days 0 0  
Year to date cooling degree days 0 0  
Moisture  
Dew Point 6 °F    
Average Humidity 73    
Maximum Humidity 92    
Minimum Humidity 53    
Precipitation  
Precipitation 0.03 in 0.09 in 1.06 in (1969)
Month to date precipitation 0.03 0.09  
Year to date precipitation 0.03 0.09  
Snow  
Snow 0.40 in 0.80 in 12.40 in (1961)
Month to date snowfall 0.4 0.8  
Since 1 July snowfall 28.9 35.9  
Snow Depth 8.00 in    
Sea Level Pressure  
Sea Level Pressure 29.51 in    
Wind  
Wind Speed 7 mph (WNW)    
Max Wind Speed 21 mph    
Max Gust Speed 28 mph    
Visibility 6 miles    
Events Snow    
T = Trace of Precipitation, MM = Missing Value Source: NWS Daily Summary

Daily Weather History Graph

Daily Weather History Graph

Search for Another Location

Airport:

Trip Planner

Search our weather history database for the weather conditions in past years. The results will help you decide how hot, cold, wet, or windy it might be!

Date:

Astronomy

Jan. 01, 2013 Rise Set
Actual Time 7:17 AM EST 3:54 PM EST
Civil Twilight 6:42 AM EST 4:29 PM EST
Nautical Twilight 6:03 AM EST 5:08 PM EST
Astronomical Twilight 5:26 AM EST 5:44 PM EST
Moon 8:40 PM EST (1/1) 9:11 AM EST (1/1)
Length of Visible Light 9h 47m
Length of Day
8h 37m
Waning Gibbous, 83% of the Moon is Illuminated
Jan 1
Waning Gibbous
Jan 4
Last Quarter
Jan 11
New
Jan 18
First Quarter
Jan 26
Full

Hourly Weather History & Observations

Time (EST) Temp. Windchill Dew Point Humidity Pressure Visibility Wind Dir Wind Speed Gust Speed Precip Events Conditions
12:15 AM 12.2 °F - 8.6 °F 85% 29.50 in 1.5 mi Calm Calm - 0.01 in Snow Light Snow
12:25 AM 12.2 °F - 10.4 °F 92% 29.49 in 2.0 mi Calm Calm - 0.01 in Snow Light Snow
12:33 AM 12.2 °F - 10.4 °F 92% 29.49 in 1.5 mi Calm Calm - 0.01 in Snow Light Snow
12:40 AM 12.2 °F - 10.4 °F 92% 29.48 in 1.2 mi Calm Calm - 0.02 in Snow Light Snow
12:50 AM 12.2 °F - 8.6 °F 85% 29.48 in 1.5 mi Calm Calm - 0.02 in Snow Light Snow
12:54 AM 12.9 °F - 9.0 °F 84% 29.52 in 1.5 mi Calm Calm - 0.02 in Snow Light Snow
1:01 AM 12.2 °F - 8.6 °F 85% 29.47 in 1.2 mi Calm Calm - 0.00 in Snow Light Snow
1:30 AM 14.0 °F - 10.4 °F 86% 29.46 in 0.8 mi Calm Calm - 0.00 in Snow Light Snow
1:38 AM 14.0 °F 8.2 °F 10.4 °F 86% 29.46 in 1.5 mi East 3.5 mph - 0.01 in Snow Light Snow
1:54 AM 14.0 °F - 10.9 °F 88% 29.50 in 1.8 mi Calm Calm - 0.01 in Snow Light Snow
2:14 AM 14.0 °F - 12.2 °F 93% 29.44 in 2.0 mi Calm Calm - 0.00 in Snow Light Snow
2:35 AM 15.8 °F 10.2 °F 12.2 °F 86% 29.44 in 6.0 mi South 3.5 mph - 0.00 in Snow Light Snow
2:54 AM 15.1 °F 9.4 °F 12.9 °F 91% 29.47 in 10.0 mi SSE 3.5 mph - 0.00 in   Overcast
3:52 AM 15.8 °F - 12.2 °F 86% 29.41 in 2.5 mi Calm Calm - 0.00 in Snow Light Snow
3:54 AM 16.0 °F - 12.9 °F 88% 29.45 in 3.0 mi Calm Calm - 0.00 in Snow Light Snow
4:02 AM 15.8 °F - 12.2 °F 86% 29.41 in 8.0 mi Calm Calm - 0.00 in   Overcast
4:54 AM 16.0 °F - 12.9 °F 88% 29.44 in 10.0 mi Calm Calm - 0.00 in   Overcast
5:35 AM 14.0 °F - 10.4 °F 86% 29.40 in 10.0 mi Calm Calm - N/A   Scattered Clouds
5:54 AM 12.9 °F - 10.0 °F 88% 29.45 in 7.0 mi Calm Calm - N/A   Partly Cloudy
6:54 AM 14.0 °F - 10.0 °F 84% 29.46 in 6.0 mi Calm Calm - N/A   Partly Cloudy
7:32 AM 12.2 °F 6.1 °F 10.4 °F 92% 29.42 in 1.8 mi WSW 3.5 mph - N/A Snow Light Snow
7:46 AM 15.8 °F - 12.2 °F 86% 29.43 in 3.0 mi Calm Calm - 0.00 in Snow Light Snow
7:54 AM 15.1 °F - 12.0 °F 88% 29.48 in 2.5 mi Calm Calm - 0.00 in Snow Light Snow
8:01 AM 15.8 °F 10.2 °F 12.2 °F 86% 29.44 in 3.0 mi WNW 3.5 mph - 0.00 in Snow Light Snow
8:09 AM 17.6 °F 12.3 °F 12.2 °F 79% 29.44 in 2.5 mi WNW 3.5 mph - 0.00 in Snow Light Snow
8:16 AM 19.4 °F 10.4 °F 15.8 °F 86% 29.44 in 3.0 mi WNW 6.9 mph - 0.00 in Snow Light Snow
8:22 AM 19.4 °F 9.5 °F 15.8 °F 86% 29.45 in 1.8 mi WNW 8.1 mph - 0.00 in Snow Light Snow
8:43 AM 17.6 °F 2.7 °F 14.0 °F 86% 29.47 in 1.0 mi NNW 16.1 mph - 0.00 in Snow Light Snow
8:51 AM 17.6 °F 3.2 °F 12.2 °F 79% 29.47 in 2.0 mi NNW 15.0 mph - 0.00 in Snow Light Snow
8:54 AM 17.1 °F 2.5 °F 12.0 °F 81% 29.52 in 2.5 mi NNW 15.0 mph - 0.00 in Snow Light Snow
9:02 AM 15.8 °F 1.4 °F 12.2 °F 86% 29.47 in 4.0 mi NW 13.8 mph 23.0 mph 0.00 in Snow Light Snow
9:20 AM 17.6 °F 2.2 °F 10.4 °F 73% 29.48 in 10.0 mi NW 17.3 mph 26.5 mph 0.00 in   Mostly Cloudy
9:54 AM 17.1 °F 3.0 °F 6.1 °F 62% 29.55 in 10.0 mi WNW 13.8 mph 23.0 mph 0.00 in   Partly Cloudy
10:54 AM 16.0 °F 3.6 °F 5.0 °F 62% 29.55 in 10.0 mi WNW 10.4 mph 23.0 mph N/A   Mostly Cloudy
11:54 AM 16.0 °F 1.1 °F 1.9 °F 54% 29.54 in 10.0 mi WNW 15.0 mph 24.2 mph 0.00 in   Clear
12:54 PM 15.1 °F -0.6 °F 1.9 °F 56% 29.53 in 10.0 mi WNW 16.1 mph 24.2 mph N/A   Mostly Cloudy
1:54 PM 14.0 °F 0.5 °F 1.0 °F 56% 29.55 in 10.0 mi WNW 11.5 mph 20.7 mph N/A   Mostly Cloudy
2:54 PM 12.0 °F 1.5 °F 3.0 °F 67% 29.56 in 10.0 mi WNW 6.9 mph - N/A   Mostly Cloudy
3:06 PM 12.2 °F -1.0 °F 3.2 °F 67% 29.52 in 4.0 mi WNW 10.4 mph 21.9 mph 0.00 in Snow Light Snow
3:54 PM 10.0 °F -0.9 °F 1.9 °F 70% 29.57 in 9.0 mi West 6.9 mph 18.4 mph 0.00 in   Overcast
4:11 PM 8.6 °F -5.5 °F -0.4 °F 67% 29.53 in 10.0 mi West 10.4 mph 20.7 mph N/A   Scattered Clouds
4:42 PM 8.6 °F -4.7 °F -0.4 °F 67% 29.54 in 10.0 mi West 9.2 mph 17.3 mph N/A   Mostly Cloudy
4:54 PM 8.1 °F -8.4 °F -2.0 °F 64% 29.60 in 10.0 mi West 13.8 mph 21.9 mph N/A   Mostly Cloudy
5:49 PM 6.8 °F -8.6 °F -2.2 °F 67% 29.55 in 10.0 mi West 11.5 mph 19.6 mph N/A   Mostly Cloudy
5:54 PM 6.1 °F -8.7 °F -2.0 °F 69% 29.61 in 10.0 mi West 10.4 mph 19.6 mph N/A   Mostly Cloudy
6:20 PM 5.0 °F -8.1 °F -2.2 °F 72% 29.56 in 10.0 mi West 8.1 mph - N/A   Scattered Clouds
6:54 PM 5.0 °F -6.9 °F -2.9 °F 70% 29.63 in 10.0 mi WNW 6.9 mph - N/A   Overcast
7:17 PM 5.0 °F -5.6 °F -2.2 °F 72% 29.58 in 7.0 mi WNW 5.8 mph - N/A   Mostly Cloudy
7:31 PM 3.2 °F -10.3 °F -4.0 °F 72% 29.59 in 10.0 mi WNW 8.1 mph - N/A   Partly Cloudy
7:54 PM 3.9 °F -8.2 °F -5.1 °F 66% 29.64 in 10.0 mi WNW 6.9 mph - N/A   Clear
8:54 PM 1.9 °F -9.2 °F -7.1 °F 66% 29.64 in 10.0 mi WNW 5.8 mph - N/A   Clear
9:54 PM 1.0 °F -11.7 °F -7.1 °F 69% 29.65 in 10.0 mi WNW 6.9 mph - N/A   Clear
10:54 PM 1.0 °F -12.9 °F -7.1 °F 69% 29.65 in 10.0 mi WNW 8.1 mph - N/A   Clear
11:54 PM 1.0 °F -14.9 °F -8.0 °F 66% 29.65 in 10.0 mi WNW 10.4 mph 20.7 mph N/A   Partly Cloudy